Time,TemperatureF,DewpointF,PressureIn,WindDirection,WindDirectionDegrees,WindSpeedMPH,WindSpeedGustMPH,Humidity,HourlyPrecipIn,Conditions,Clouds,dailyrainin,SoftwareType,DateUTC
2013-05-24 00:01:00,40.5,38.4,30.24,NW,309,1.0,6.0,92,0.00,,---,0.00,VWS V14.01,2013-05-24 04:01:00,
2013-05-24 00:16:00,40.4,38.3,30.24,NW,316,2.0,6.0,92,0.00,,---,0.00,VWS V14.01,2013-05-24 04:16:00,
2013-05-24 00:31:00,40.3,38.4,30.24,NNW,329,2.0,5.0,93,0.00,,---,0.00,VWS V14.01,2013-05-24 04:31:00,
2013-05-24 00:46:00,40.3,38.4,30.24,West,276,1.0,6.0,93,0.00,,---,0.00,VWS V14.01,2013-05-24 04:46:00,
2013-05-24 01:01:00,40.3,38.4,30.25,WNW,298,1.0,5.0,93,0.00,,---,0.00,VWS V14.01,2013-05-24 05:01:00,
2013-05-24 01:16:00,40.2,38.3,30.25,North,360,1.0,4.0,93,0.00,,---,0.00,VWS V14.01,2013-05-24 05:16:00,
2013-05-24 01:31:00,40.1,38.5,30.25,NW,323,2.0,4.0,94,0.00,,---,0.00,VWS V14.01,2013-05-24 05:31:00,
2013-05-24 01:46:00,40.0,38.4,30.26,NW,323,0.0,5.0,94,0.00,,---,0.00,VWS V14.01,2013-05-24 05:46:00,
2013-05-24 02:01:00,39.9,38.3,30.25,NNW,329,2.0,4.0,94,0.00,,---,0.00,VWS V14.01,2013-05-24 06:01:00,
2013-05-24 02:16:00,40.0,38.7,30.26,WNW,287,2.0,5.0,95,0.00,,---,0.00,VWS V14.01,2013-05-24 06:16:00,
2013-05-24 02:31:00,39.9,38.6,30.26,NNW,336,0.0,6.0,95,0.00,,---,0.00,VWS V14.01,2013-05-24 06:31:00,
2013-05-24 02:46:00,39.7,38.1,30.27,NW,325,0.0,5.0,94,0.00,,---,0.00,VWS V14.01,2013-05-24 06:46:00,
2013-05-24 03:01:00,39.6,38.0,30.27,NNW,331,0.0,6.0,94,0.00,,---,0.00,VWS V14.01,2013-05-24 07:01:00,
2013-05-24 03:16:00,39.2,37.3,30.28,West,272,0.0,4.0,93,0.00,,---,0.00,VWS V14.01,2013-05-24 07:16:00,
2013-05-24 03:31:00,39.0,36.9,30.28,NE,51,1.0,5.0,92,0.00,,---,0.00,VWS V14.01,2013-05-24 07:31:00,
2013-05-24 03:46:00,38.7,36.3,30.28,NNW,334,0.0,5.0,91,0.00,,---,0.00,VWS V14.01,2013-05-24 07:46:00,
2013-05-24 04:01:00,38.3,35.9,30.28,NNW,343,0.0,6.0,91,0.00,,---,0.00,VWS V14.01,2013-05-24 08:01:00,
2013-05-24 04:16:00,38.1,35.4,30.29,North,10,1.0,4.0,90,0.00,,---,0.00,VWS V14.01,2013-05-24 08:16:00,
2013-05-24 04:31:00,37.9,35.2,30.29,WNW,299,1.0,5.0,90,0.00,,---,0.00,VWS V14.01,2013-05-24 08:31:00,
2013-05-24 04:46:00,37.8,34.9,30.30,ENE,58,0.0,3.0,89,0.00,,---,0.00,VWS V14.01,2013-05-24 08:46:00,
2013-05-24 05:01:00,37.4,34.5,30.30,ENE,57,0.0,4.0,89,0.00,,---,0.00,VWS V14.01,2013-05-24 09:01:00,
2013-05-24 05:16:00,37.1,34.2,30.29,NE,50,0.0,4.0,89,0.00,,---,0.00,VWS V14.01,2013-05-24 09:16:00,
2013-05-24 05:31:00,36.8,34.2,30.30,NNW,346,1.0,4.0,90,0.00,,---,0.00,VWS V14.01,2013-05-24 09:31:00,
2013-05-24 05:46:00,36.9,34.0,30.31,North,360,2.0,4.0,89,0.00,,---,0.00,VWS V14.01,2013-05-24 09:46:00,
2013-05-24 06:01:00,36.8,33.9,30.31,NNW,340,0.0,4.0,89,0.00,,---,0.00,VWS V14.01,2013-05-24 10:01:00,
2013-05-24 06:16:00,36.6,34.0,30.32,NNW,340,0.0,3.0,90,0.00,,---,0.00,VWS V14.01,2013-05-24 10:16:00,
2013-05-24 06:31:00,36.5,33.8,30.33,NNW,348,0.0,4.0,90,0.00,,---,0.00,VWS V14.01,2013-05-24 10:31:00,
2013-05-24 06:46:00,36.5,33.8,30.34,NNW,348,0.0,3.0,90,0.00,,---,0.00,VWS V14.01,2013-05-24 10:46:00,
2013-05-24 07:01:00,37.0,34.6,30.34,NNW,347,1.0,3.0,91,0.00,,---,0.00,VWS V14.01,2013-05-24 11:01:00,
2013-05-24 07:16:00,37.7,35.0,30.36,NNW,336,1.0,3.0,90,0.00,,---,0.00,VWS V14.01,2013-05-24 11:16:00,
2013-05-24 07:31:00,38.4,35.5,30.36,NNW,343,2.0,5.0,89,0.00,,---,0.00,VWS V14.01,2013-05-24 11:31:00,
2013-05-24 07:46:00,39.0,35.8,30.37,NE,46,3.0,5.0,88,0.00,,---,0.00,VWS V14.01,2013-05-24 11:46:00,
2013-05-24 08:01:00,40.3,36.8,30.37,NW,326,2.0,7.0,87,0.00,,---,0.00,VWS V14.01,2013-05-24 12:01:00,
2013-05-24 08:16:00,41.5,37.0,30.38,NE,55,4.0,7.0,84,0.00,,---,0.00,VWS V14.01,2013-05-24 12:16:00,
2013-05-24 08:31:00,42.1,37.3,30.39,NW,310,0.0,5.0,83,0.00,,---,0.00,VWS V14.01,2013-05-24 12:31:00,
2013-05-24 08:46:00,43.2,37.8,30.39,NNW,336,2.0,5.0,81,0.00,,---,0.00,VWS V14.01,2013-05-24 12:46:00,
2013-05-24 09:01:00,44.2,38.4,30.40,North,355,5.0,7.0,80,0.00,,---,0.00,VWS V14.01,2013-05-24 13:01:00,
2013-05-24 09:16:00,44.4,38.6,30.40,ENE,69,2.0,7.0,80,0.00,,---,0.00,VWS V14.01,2013-05-24 13:16:00,
2013-05-24 09:31:00,45.1,39.0,30.40,NE,40,3.0,5.0,79,0.00,,---,0.00,VWS V14.01,2013-05-24 13:31:00,
2013-05-24 09:46:00,45.5,39.0,30.41,NNW,341,2.0,7.0,78,0.00,,---,0.00,VWS V14.01,2013-05-24 13:46:00,
2013-05-24 10:01:00,46.4,39.6,30.41,NE,34,0.0,8.0,77,0.00,,---,0.00,VWS V14.01,2013-05-24 14:01:00,
2013-05-24 10:16:00,46.8,39.0,30.42,West,281,3.0,7.0,74,0.00,,---,0.00,VWS V14.01,2013-05-24 14:16:00,
2013-05-24 10:31:00,47.3,39.1,30.42,NW,325,0.0,6.0,73,0.00,,---,0.00,VWS V14.01,2013-05-24 14:31:00,
2013-05-24 10:46:00,48.7,39.0,30.42,North,5,6.0,7.0,69,0.00,,---,0.00,VWS V14.01,2013-05-24 14:46:00,
2013-05-24 11:01:00,49.1,39.0,30.42,West,273,10.0,11.0,68,0.00,,---,0.00,VWS V14.01,2013-05-24 15:01:00,
2013-05-24 11:16:00,48.8,39.1,30.42,West,274,0.0,10.0,69,0.00,,---,0.00,VWS V14.01,2013-05-24 15:16:00,
2013-05-24 11:31:00,49.8,38.5,30.42,NW,308,3.0,8.0,65,0.00,,---,0.00,VWS V14.01,2013-05-24 15:31:00,
2013-05-24 11:46:00,50.7,39.0,30.42,West,279,7.0,11.0,64,0.00,,---,0.00,VWS V14.01,2013-05-24 15:46:00,
2013-05-24 12:01:00,51.0,37.6,30.42,West,275,10.0,11.0,60,0.00,,---,0.00,VWS V14.01,2013-05-24 16:01:00,
2013-05-24 12:16:00,51.5,40.9,30.42,NW,318,8.0,12.0,67,0.00,,---,0.00,VWS V14.01,2013-05-24 16:16:00,
2013-05-24 12:31:00,51.2,41.4,30.42,WNW,284,12.0,15.0,69,0.00,,---,0.00,VWS V14.01,2013-05-24 16:31:00,
2013-05-24 12:46:00,51.1,39.8,30.42,WNW,292,9.0,16.0,65,0.00,,---,0.00,VWS V14.01,2013-05-24 16:46:00,
2013-05-24 13:01:00,51.3,38.3,30.43,North,360,7.0,12.0,61,0.00,,---,0.00,VWS V14.01,2013-05-24 17:01:00,
2013-05-24 13:16:00,50.7,39.8,30.42,West,276,4.0,12.0,66,0.00,,---,0.00,VWS V14.01,2013-05-24 17:16:00,
2013-05-24 13:31:00,51.0,39.3,30.42,WNW,290,3.0,14.0,64,0.00,,---,0.00,VWS V14.01,2013-05-24 17:31:00,
2013-05-24 13:46:00,50.9,39.2,30.43,NW,325,4.0,14.0,64,0.00,,---,0.00,VWS V14.01,2013-05-24 17:46:00,
2013-05-24 14:01:00,51.3,39.5,30.42,WNW,285,6.0,14.0,64,0.00,,---,0.00,VWS V14.01,2013-05-24 18:01:00,
2013-05-24 14:16:00,52.0,38.1,30.42,NW,312,4.0,13.0,59,0.00,,---,0.00,VWS V14.01,2013-05-24 18:16:00,
2013-05-24 14:31:00,52.0,38.1,30.42,WNW,294,9.0,10.0,59,0.00,,---,0.00,VWS V14.01,2013-05-24 18:31:00,
2013-05-24 14:46:00,52.6,39.1,30.42,West,278,3.0,10.0,60,0.00,,---,0.00,VWS V14.01,2013-05-24 18:46:00,
2013-05-24 15:01:00,52.1,37.8,30.43,WNW,284,7.0,14.0,58,0.00,,---,0.00,VWS V14.01,2013-05-24 19:01:00,
2013-05-24 15:16:00,51.7,39.1,30.42,WNW,295,7.0,13.0,62,0.00,,---,0.00,VWS V14.01,2013-05-24 19:16:00,
2013-05-24 15:31:00,51.8,38.8,30.42,NW,308,2.0,12.0,61,0.00,,---,0.00,VWS V14.01,2013-05-24 19:31:00,
2013-05-24 15:46:00,51.6,38.2,30.41,NW,321,6.0,12.0,60,0.00,,---,0.00,VWS V14.01,2013-05-24 19:46:00,
2013-05-24 16:01:00,52.2,37.9,30.41,NW,316,4.0,10.0,58,0.00,,---,0.00,VWS V14.01,2013-05-24 20:01:00,
2013-05-24 16:16:00,52.5,38.6,30.41,WNW,303,4.0,12.0,59,0.00,,---,0.00,VWS V14.01,2013-05-24 20:16:00,
2013-05-24 16:31:00,52.5,38.6,30.41,NNW,344,1.0,10.0,59,0.00,,---,0.00,VWS V14.01,2013-05-24 20:31:00,
2013-05-24 16:46:00,53.0,38.2,30.40,West,279,5.0,9.0,57,0.00,,---,0.00,VWS V14.01,2013-05-24 20:46:00,
2013-05-24 17:01:00,52.3,38.8,30.40,NNE,19,6.0,14.0,60,0.00,,---,0.00,VWS V14.01,2013-05-24 21:01:00,
2013-05-24 17:16:00,52.8,38.0,30.40,West,279,5.0,10.0,57,0.00,,---,0.00,VWS V14.01,2013-05-24 21:16:00,
2013-05-24 17:31:00,53.0,38.2,30.39,NE,55,3.0,8.0,57,0.00,,---,0.00,VWS V14.01,2013-05-24 21:31:00,
2013-05-24 17:46:00,53.4,37.7,30.38,WNW,299,1.0,10.0,55,0.00,,---,0.00,VWS V14.01,2013-05-24 21:46:00,
2013-05-24 18:01:00,52.1,37.8,30.37,WNW,293,1.0,11.0,58,0.00,,---,0.00,VWS V14.01,2013-05-24 22:01:00,
2013-05-24 18:16:00,53.0,36.3,30.37,NW,307,5.0,8.0,53,0.00,,---,0.00,VWS V14.01,2013-05-24 22:16:00,
2013-05-24 18:31:00,52.4,35.3,30.36,NW,321,2.0,11.0,52,0.00,,---,0.00,VWS V14.01,2013-05-24 22:31:00,
2013-05-24 18:46:00,53.2,35.1,30.35,NNE,26,4.0,5.0,50,0.00,,---,0.00,VWS V14.01,2013-05-24 22:46:00,
2013-05-24 19:01:00,52.9,34.3,30.34,West,277,6.0,6.0,49,0.00,,---,0.00,VWS V14.01,2013-05-24 23:01:00,
2013-05-24 19:16:00,52.4,33.8,30.34,WNW,297,4.0,7.0,49,0.00,,---,0.00,VWS V14.01,2013-05-24 23:16:00,
2013-05-24 19:31:00,52.8,34.7,30.33,West,281,1.0,7.0,50,0.00,,---,0.00,VWS V14.01,2013-05-24 23:31:00,
2013-05-24 19:46:00,53.2,35.6,30.33,West,281,2.0,4.0,51,0.00,,---,0.00,VWS V14.01,2013-05-24 23:46:00,
2013-05-24 20:01:00,52.6,35.0,30.33,NW,310,3.0,6.0,51,0.00,,---,0.00,VWS V14.01,2013-05-25 00:01:00,
2013-05-24 20:16:00,51.9,35.3,30.33,WNW,288,4.0,6.0,53,0.00,,---,0.00,VWS V14.01,2013-05-25 00:16:00,
2013-05-24 20:31:00,51.0,35.9,30.34,WNW,288,2.0,5.0,56,0.00,,---,0.00,VWS V14.01,2013-05-25 00:31:00,
2013-05-24 20:46:00,49.4,36.1,30.34,WNW,288,4.0,6.0,60,0.00,,---,0.00,VWS V14.01,2013-05-25 00:46:00,
2013-05-24 21:01:00,48.1,35.7,30.34,WNW,288,1.0,5.0,62,0.00,,---,0.00,VWS V14.01,2013-05-25 01:01:00,
2013-05-24 21:16:00,47.1,36.0,30.34,WNW,288,3.0,5.0,65,0.00,,---,0.00,VWS V14.01,2013-05-25 01:16:00,
2013-05-24 21:31:00,46.1,36.9,30.35,WNW,285,4.0,8.0,70,0.00,,---,0.00,VWS V14.01,2013-05-25 01:31:00,
2013-05-24 21:46:00,44.6,37.5,30.36,West,277,3.0,8.0,76,0.00,,---,0.00,VWS V14.01,2013-05-25 01:46:00,
2013-05-24 22:01:00,43.8,37.7,30.37,West,281,5.0,7.0,79,0.00,,---,0.00,VWS V14.01,2013-05-25 02:01:00,
2013-05-24 22:16:00,43.3,37.9,30.37,WNW,286,0.0,7.0,81,0.00,,---,0.00,VWS V14.01,2013-05-25 02:16:00,
2013-05-24 22:31:00,42.7,37.9,30.38,WNW,286,4.0,6.0,83,0.00,,---,0.00,VWS V14.01,2013-05-25 02:31:00,
2013-05-24 22:46:00,42.1,37.9,30.38,WNW,286,1.0,5.0,85,0.00,,---,0.00,VWS V14.01,2013-05-25 02:46:00,
2013-05-24 23:01:00,41.8,37.6,30.39,WNW,290,2.0,8.0,85,0.00,,---,0.00,VWS V14.01,2013-05-25 03:01:00,
2013-05-24 23:16:00,41.4,37.5,30.39,WNW,290,0.0,5.0,86,0.00,,---,0.00,VWS V14.01,2013-05-25 03:16:00,
2013-05-24 23:31:00,40.9,37.3,30.40,WNW,290,0.0,4.0,87,0.00,,---,0.00,VWS V14.01,2013-05-25 03:31:00,
2013-05-24 23:46:00,40.5,37.2,30.39,WNW,297,5.0,5.0,88,0.00,,---,0.00,VWS V14.01,2013-05-25 03:46:00,